Regional Weather Roundup
Issued by NWS

Home | Current Version | Previous Version | Graphics & Text | Print | Product List | Glossary On
Versions: 1 2 3 4 5 6 7 8 9 10 11 12 13 14 15 16 17 18 19 20 21 22 23 24 25 26 27 28 29 30 31 32 33 34 35 36 37 38 39 40 41 42 43 44 45 46 47 48 49 50
000
ASUS43 KMPX 291110
RWRMN
WEATHER ROUNDUP FOR MINNESOTA
NATIONAL WEATHER SERVICE TWIN CITIES/CHANHASSEN MN
600 AM CDT FRI AUG 29 2014


NOTE: "FAIR" INDICATES FEW OR NO CLOUDS BELOW 12,000 FEET WITH NO
SIGNIFICANT WEATHER AND/OR OBSTRUCTIONS TO VISIBILITY. N/A MEANS
CURRENT SKY AND/OR WEATHER CONDITIONS ARE NOT AVAILABLE.

MNZ060>063-068>070-291200-
   Twin Cities Metro

CITY           SKY/WX    TMP DP  RH WIND       PRES   REMARKS
TWIN CITIES    LGT RAIN  69  68  96 SE8       29.80F
ST PAUL        CLOUDY    68  67  96 SE13      29.81F
CRYSTAL        LGT RAIN  70  67  90 S8        29.78S
BLAINE         CLOUDY    70  70 100 SE8       29.80S FOG
LAKEVILLE      CLOUDY    66  66 100 SE3       29.81F
EDEN PRAIRIE   CLOUDY    69  68  96 SE8       29.79F
SOUTH ST PAUL  LGT RAIN  68  67  94 SE7       29.81S
LAKE ELMO      CLOUDY    68  66  94 S8        29.83S
$$
MNZ001>005-007-008-013>017-022>024-027-028-291200-
   Northwest Minnesota

CITY           SKY/WX    TMP DP  RH WIND       PRES   REMARKS
BEMIDJI        RAIN      63  62  98 E5        29.80F
HALLOCK        CLOUDY    66  64  94 CALM      29.78F FOG
ROSEAU         CLOUDY    64  59  82 SW3       29.80S
WARROAD        CLOUDY    63  59  88 CALM      29.80F
THIEF RVR FALL CLOUDY    63  63 100 SE3       29.80F
CROOKSTON      CLOUDY    64  63  94 CALM      29.79S
FOSSTON        CLOUDY    63  61  94 CALM      29.80F FOG
DETROIT LAKES  DRIZZLE   64  63  94 SE5       29.81S
MOORHEAD       FOG       66  66 100 CALM      29.78S VSB 1/4
PARK RAPIDS    CLOUDY    64  63  96 E3        29.80F
MAHNOMEN       CLOUDY    64  63  98 CALM      29.79F
$$
MNZ006-009>011-018-025>026-291200-
   North Central Minnesota

CITY           SKY/WX    TMP DP  RH WIND       PRES   REMARKS
BAUDETTE       CLOUDY    62  60  93 CALM      29.81S
FLAG ISLAND    CLOUDY    66  63  88 W3        29.81R
INTL FALLS     CLOUDY    60  59  96 SE5       29.83F
WASKISH        CLOUDY    64  63  94 CALM      29.82F
BIG FORK       LGT RAIN  61  61 100 CALM      29.84F
LONGVILLE      RAIN      63  63 100 CALM      29.81S
GRAND RAPIDS   CLOUDY    61  57  88 CALM      29.83F
CRANE LAKE     DRIZZLE   57  57 100 CALM      29.87F
ORR            DRIZZLE   59  55  88 CALM      29.82F
COOK           RAIN      57  57 100 CALM      29.86F
WALKER         RAIN      62  62  99 CALM      29.81S
$$
MNZ012-019>021-037-291200-
   Northeast Minnesota

CITY           SKY/WX    TMP DP  RH WIND       PRES   REMARKS
DULUTH         DRIZZLE   61  58  90 E10       29.86F FOG
ELY            CLOUDY    61  55  82 CALM      29.89S
HIBBING        RAIN      61  58  90 E3        29.85F FOG
EVELETH        HVY RAIN  59  57  94 NE3       29.87F
DULUTH HARBOR  CLOUDY    63  61  94 E8        29.86S
TWO HARBORS    CLOUDY    59  54  82 E6        29.86F
SILVER BAY     LGT RAIN  57  57 100 CALM      29.87F
GRAND MARAIS     N/A     62  56  80 NE5       29.90F
G MARAIS ARPRT CLOUDY    57  52  82 CALM      29.94S
$$
MNZ029>031-032-039>041-046>048-054>057-064-291200-
   West Central Minnesota

CITY           SKY/WX    TMP DP  RH WIND       PRES   REMARKS
FERGUS FALLS   FOG       64  64 100 SE3       29.79S VSB 1/2
WHEATON        FOG       63  63 100 SE5       29.79S VSB 1
MORRIS         FOG       66  64  94 CALM      29.77F VSB 1/4
ALEXANDRIA     CLOUDY    64  64 100 CALM      29.81R FOG
ELBOW LAKE     CLOUDY    64  64  99 SE3       29.79R
WADENA         FOG       63  63 100 CALM      29.80S VSB 1/2
GLENWOOD       LGT RAIN  64  64 100 CALM      29.79S
APPLETON       CLOUDY    66  64  94 CALM      29.77S FOG
BENSON         CLOUDY    64  64 100 CALM      29.78R FOG
ORTONVILLE     FOG       64  63  94 CALM      29.77S VSB 1/2
MADISON        FOG       68  66  94 N6        29.76F VSB 1/4
WILLMAR        FOG       66  64  94 CALM      29.78S VSB 1/4
$$
MNZ033>034-036-042>043-049>051-058-059-291200-
   Central Minnesota

CITY           SKY/WX    TMP DP  RH WIND       PRES   REMARKS
ST CLOUD       LGT RAIN  67  65  93 E7        29.79S FOG
SAUK CENTRE    LGT RAIN  64  64  98 CALM      29.79S
PAYNESVILLE    HVY RAIN  63  63 100 CALM      29.79S VSB 1
AITKIN         CLOUDY    64  61  88 SE3       29.81S HAZE
PINE RIVER     CLOUDY    63  63 100 SE5       29.84S FOG
BRAINERD       LGT RAIN  63  63 100 VRB3      29.81F FOG
STAPLES        CLOUDY    63  63 100 CALM      29.81R FOG
LONG PRAIRIE   FOG       63  63 100 CALM      29.80S VSB 1
LITTLE FALLS   CLOUDY    63  63 100 E3        29.80
LITCHFIELD     FOG       70  70 100 CALM      29.78S VSB 1
BUFFALO        CLOUDY    69  67  92 SE6       29.79S
MAPLE LAKE     CLOUDY    69  68  98 SE5       29.79F FOG
$$
MNZ037-044-045-052-053-291200-
   East Central Minnesota

CITY           SKY/WX    TMP DP  RH WIND       PRES   REMARKS
PRINCETON      CLOUDY    66  64  94 N3        29.80F
MORA           LGT RAIN  59  59 100 E3        29.83S
CAMBRIDGE      CLOUDY    66  59  77 CALM      29.79S
RUSH CITY      TSTM      63  61  95 CALM      29.82S
MOOSE LAKE     CLOUDY    63  61  94 CALM      29.81F
HINCKLEY       LGT RAIN  63  63 100 E3        29.82F
CLOQUET        CLOUDY    61  59  94 E5        29.85F FOG
MCGREGOR       CLOUDY    63  61  94 SE7       29.83F
$$
MNZ071>073-080-081-089-090-097-098-291200-
   Southwest Minnesota

CITY           SKY/WX    TMP DP  RH WIND       PRES   REMARKS
MONTEVIDEO     FOG       66  66 100 CALM      29.78R VSB 1/4
GRANITE FALLS  LGT RAIN  66  67 100 CALM      29.78R VSB 1/2
CANBY          RAIN      66  66  98 CALM      29.77F VSB 1/4
MARSHALL       CLOUDY    66  64  94 CALM      29.76S
REDWOOD FALLS  CLOUDY    70  69  97 S9        29.77R
OLIVIA         FOG       70  68  94 S3        29.77S VSB 1/2
PIPESTONE      CLOUDY    70  70 100 SW8       29.78S FOG
WINDOM         CLOUDY    68  64  88 S5        29.80R
WORTHINGTON    MOCLDY    66  66 100 S10       29.81S
JACKSON        MOCLDY    68  63  83 S7        29.81R
TRACY          LGT RAIN  72  71  96 CALM      29.77F
SLAYTON        CLOUDY    70  69  99 CALM      29.80S FOG
$$
MNZ065>067-074>077-082>085-091>093-291200-
   South Central Minnesota

CITY           SKY/WX    TMP DP  RH WIND       PRES   REMARKS
MANKATO        CLOUDY    70  63  78 S13       29.79S
NEW ULM        MOCLDY    68  68 100 S6        29.79R
ST JAMES       MOCLDY    70  66  88 S9        29.80R
FAIRMONT       MOCLDY    64  63  94 S12       29.80F
GLENCOE        CLOUDY    71  67  89 SE5       29.78F
FARIBAULT      CLOUDY    72  66  83 SE7       29.82F HAZE
OWATONNA       CLOUDY    70  66  88 SE5       29.82F
WASECA         CLOUDY    66  61  82 S6        29.83F
ALBERT LEA     CLOUDY    66  66 100 S7        29.83R
$$
MNZ078>079-086>088-094>096-291200-
   Southeast Minnesota

CITY           SKY/WX    TMP DP  RH WIND       PRES   REMARKS
ROCHESTER      CLOUDY    68  66  93 SE10      29.85F
RED WING       LGT RAIN  68  66  94 SE8       29.82F
STANTON        CLOUDY    69  66  91 SE7       29.81S
DODGE CENTER   CLOUDY    68  66  94 SE3       29.84S
WINONA         DRIZZLE   63  63 100 SE8       29.88S
AUSTIN         CLOUDY    68  66  94 S7        29.83S
PRESTON        CLOUDY    66  67 100 CALM      29.88R FOG
$$
ABBREVIATIONS USED IN REMARKS
   TC - TEMPERATURES IN CELSIUS
  WCI - WIND CHILL INDEX
   HX - HEAT INDEX
  VSB - VISIBILITY
$$



USA.gov is the U.S. government's official web portal to all federal, state and local government web resources and services.